Lid_Strength_Index
4 5 6 7 4 2 2 2 2 2 1 1 1 2 2 1 1 0 0 0 0 0 1 1 0 1 1 1 1 1 1 2 2 3 3 2 2 2 2 1 2 1 1
6 6 6 6 6 3 2 2 2 2 2 1 1 1 1 1 0 0 0 0 -0 0 0 1 1 0 1 1 1 1 2 1 1 3 3 5 3 2 2 2 2 3 2
6 6 6 6 7 5 3 3 2 2 2 1 2 2 2 2 2 2 2 3 2 3 2 2 2 1 2 1 1 1 1 3 1 1 3 6 7 4 3 2 2 3 3
4 5 6 6 6 7 5 5 5 4 4 4 3 3 3 3 5 4 4 5 5 5 5 4 4 4 1 1 1 0 1 1 3 3 2 3 3 6 6 3 3 3 2
6 5 6 6 6 5 5 6 6 6 7 7 6 5 7 7 7 7 7 5 4 4 4 4 4 3 3 3 3 3 3 3 2 2 2 3 3 3 4 6 4 2 2
6 5 5 6 5 5 5 5 5 6 5 5 5 6 6 6 6 6 6 5 4 5 5 4 5 5 5 4 4 3 3 3 2 2 2 3 3 4 4 5 4 4 3
6 6 7 7 6 5 5 5 5 5 5 5 5 5 5 5 5 5 5 5 5 5 6 6 6 6 6 6 5 5 4 3 2 2 2 1 2 3 3 3 4 4 4
6 6 6 6 6 5 5 5 5 5 5 5 5 5 5 5 6 6 6 7 7 7 7 7 7 7 7 7 6 6 5 4 3 4 3 3 4 4 3 3 4 5 5
7 5 6 6 6 6 6 6 5 5 5 5 6 6 6 6 7 8 8 8 8 8 9 8 8 8 8 8 7 6 6 6 4 6 5 5 5 4 4 4 4 5 7
8 7 7 7 5 5 5 5 6 6 6 6 7 7 7 8 8 8 9 9 9 9 9 9 9 9 9 8 8 7 7 6 6 6 5 5 5 5 5 5 5 5 6
8 8 7 6 6 5 5 5 6 6 7 7 7 8 9 9 9 9 10 10 10 10 10 10 10 10 10 9 9 9 8 7 7 7 7 7 6 7 6 6 6 6 7
6 6 6 6 6 6 6 5 6 7 7 7 8 9 9 9 9 10 10 10 10 10 11 10 10 10 10 10 10 10 9 9 9 9 8 8 7 8 8 8 9 9 10
6 6 6 5 5 6 7 7 7 8 7 8 8 9 9 10 10 10 10 10 11 11 11 10 11 11 11 11 11 10 10 11 11 10 9 9 8 9 10 9 9 9 8
5 5 6 6 6 5 5 5 6 6 7 8 9 9 9 9 9 9 10 10 10 10 11 11 11 11 11 10 10 10 10 10 10 10 10 10 11 11 10 10 12 11 9
6 5 5 5 5 6 6 6 6 6 7 7 7 7 7 8 8 9 9 10 10 10 10 10 10 10 10 10 10 10 11 11 11 11 11 11 11 10 10 12 13 13 12
6 5 5 5 5 5 6 6 6 7 7 7 7 7 7 7 8 8 9 9 10 10 10 9 10 10 10 10 10 10 11 10 12 14 14 14 12 12 10 10 10 12 14
6 6 5 5 5 5 5 6 7 7 7 7 7 7 7 8 8 8 8 9 10 10 9 9 10 11 11 10 10 10 11 14 14 15 15 14 13 13 14 12 11 11 11
6 6 5 5 4 4 5 6 6 7 7 8 8 8 8 8 9 9 9 10 10 10 10 10 10 11 11 11 11 11 15 15 16 16 15 14 14 14 15 15 15 15 15
6 6 6 5 4 4 5 6 7 8 8 8 8 8 8 9 9 10 10 12 11 11 12 11 12 14 14 12 12 14 15 15 15 14 14 14 14 12 13 15 16 17 16
6 6 5 5 5 5 6 7 8 8 8 8 8 8 8 9 9 10 10 12 11 12 12 12 12 12 14 11 12 13 15 16 16 16 15 13 14 12 13 15 17 17 17
7 6 6 6 6 6 6 7 9 9 8 7 8 8 9 9 8 10 10 12 13 13 13 13 14 13 13 13 12 12 15 16 17 17 17 16 13 13 12 13 16 16 15
7 7 8 8 7 7 7 8 8 7 7 8 8 8 9 9 9 11 12 12 13 13 13 14 14 14 14 11 11 12 13 13 16 17 17 15 13 13 13 14 14 13 13
7 7 7 8 8 7 7 8 8 8 8 8 9 9 9 9 10 12 12 13 13 13 13 14 15 15 15 14 11 10 11 11 15 16 14 13 13 14 15 14 14 13 16
8 7 7 8 8 7 7 7 8 8 9 8 8 9 9 10 11 11 12 13 13 13 13 15 16 16 16 16 15 14 13 11 12 13 15 14 15 14 15 16 16 16 17
7 7 8 8 9 8 8 8 8 8 9 8 9 9 10 10 11 12 12 12 12 12 12 15 15 16 17 16 14 14 14 15 14 15 16 16 17 18 18 18 18 18 18
6 6 6 8 9 9 9 9 8 8 9 9 9 9 10 10 11 12 12 10 10 9 9 10 13 14 12 12 12 12 12 12 12 15 17 17 17 17 18 18 18 18 17